Home   Weather   Guayaquil   Past weeks

Flag for Ecuador Past Weather in Guayaquil, Ecuador — Yesterday and Last 2 Weeks

Now
86 °F

Scattered clouds.


Feels Like: 92 °F
Forecast: N/A
Wind: 10 mph from South

Location: Guayaquil / Simon Bolivar

Current Time: Dec 6, 2016 at 5:04:46 pm

Latest Report: Dec 6, 2016 at 4:00 pm


Visibility: N/A

Pressure: 29.77 "Hg

Humidity: 62%

Dew Point: 72 °F

Location of GuayaquilLocation

Past Weather in Guayaquil — Graph

°F

Guayaquil Temperature Yesterday

Maximum temperature yesterday: 82 °F (at 11:00 am)
Minimum temperature yesterday: 75 °F (at 12:00 am)
Average temperature yesterday: 78 °F

High & Low Weather Summary for the Past Weeks

 TemperatureHumidityPressure
High93 °F (Dec 4, 3:00 pm)83% (Nov 22, 1:00 am)29.95 "Hg (Nov 22, 1:00 am)
Low68 °F (Nov 22, 3:00 am)38% (Nov 27, 3:00 pm)29.71 "Hg (Nov 21, 4:00 pm)
Average79 °F65%29.84 "Hg
* Reported Nov 21 4:00 pm — Dec 6 4:00 pm, Guayaquil, Weather by CustomWeather, © 2016

Note: Actual official high and low records may vary slightly from our data, if they occured in-between our weather recording intervals... More about our weather records

Advertising

Guayaquil Weather History for the Previous 24 Hours

Scroll right to see more
 ConditionsComfort  
Time TempWeatherWind HumidityBarometerVisibility
4:00 pm
Tue, Dec 6
86 °FScattered clouds.10 mph62%29.77 "HgN/A
3:00 pm88 °FPassing clouds.9 mph59%29.80 "HgN/A
1:00 pm86 °FScattered clouds.7 mph59%29.83 "HgN/A
12:00 pm84 °FScattered clouds.9 mph62%29.86 "HgN/A
11:00 am84 °FScattered clouds.7 mph62%29.89 "HgN/A
10:00 am84 °FPartly sunny.7 mph58%29.92 "HgN/A
9:00 am81 °FPartly sunny.7 mph66%29.92 "HgN/A
8:00 am77 °FPartly sunny.7 mph69%29.92 "HgN/A
7:00 am75 °FBroken clouds.8 mph74%29.89 "HgN/A
6:00 am73 °FPassing clouds.7 mph78%29.89 "HgN/A
5:00 am75 °FPassing clouds.5 mph74%29.89 "HgN/A
4:00 am75 °FMostly cloudy.6 mph74%29.86 "HgN/A
3:00 am75 °FMostly cloudy.8 mph74%29.86 "HgN/A
2:00 am75 °FMostly cloudy.5 mph74%29.89 "HgN/A
1:00 am75 °FMostly cloudy.8 mph74%29.89 "HgN/A
12:00 am75 °FPassing clouds.9 mph74%29.92 "HgN/A
11:00 pm
Mon, Dec 5
77 °FMostly cloudy.10 mph69%29.92 "HgN/A
10:00 pm77 °FMostly cloudy.10 mph69%29.92 "HgN/A
9:00 pm77 °FScattered showers. Mostly cloudy.12 mph69%29.89 "HgN/A
8:00 pm79 °FScattered showers. Mostly cloudy.13 mph65%29.86 "HgN/A
7:00 pm79 °FMostly cloudy.13 mph70%29.83 "HgN/A
6:00 pm79 °FPartly sunny.9 mph70%29.83 "HgN/A
5:00 pm82 °FMostly cloudy.2 mph62%29.80 "HgN/A
Weather by CustomWeather, © 2016

See weather overviewHow to use our weather pages